When you browse on this site, cookies collect data to enhance your experience and personalize the content and advertising you see.
Visit our Privacy Policy to learn more. By continuing to use the site, you agree to this use of cookies and data.
EN

Hourly Weather Vivsya

Today, 10 August, Monday

Time Temperature Precipitation Wind Pressure Humidity
00:00 +18°C° 0.2 mm 0 mps 729 mmHg 88%
01:00 +20°C° 0.2 mm 1 mps 729 mmHg 89%
02:00 +19°C° 0 mm 1 mps 729 mmHg 89%
03:00 +19°C° 0.1 mm 1 mps 729 mmHg 89%
04:00 +19°C° 0.1 mm 1 mps 729 mmHg 90%
05:00 +18°C° 0.1 mm 1 mps 729 mmHg 91%
06:00 +20°C° 0 mm 1 mps 729 mmHg 88%
07:00 +21°C° 0 mm 1 mps 730 mmHg 85%
08:00 +21°C° 0 mm 2 mps 730 mmHg 82%
09:00 +23°C° 0.7 mm 2 mps 730 mmHg 77%
10:00 +24°C° 0.7 mm 2 mps 730 mmHg 72%
11:00 +25°C° 0.7 mm 2 mps 730 mmHg 67%
12:00 +26°C° 0.7 mm 2 mps 730 mmHg 63%
13:00 +26°C° 0.7 mm 2 mps 729 mmHg 60%
14:00 +27°C° 0.7 mm 2 mps 729 mmHg 57%
15:00 +27°C° 0.6 mm 2 mps 729 mmHg 60%
16:00 +26°C° 0.6 mm 2 mps 729 mmHg 63%
17:00 +26°C° 0.6 mm 2 mps 729 mmHg 65%
18:00 +24°C° 0.2 mm 2 mps 729 mmHg 70%
19:00 +23°C° 0.2 mm 2 mps 729 mmHg 76%
20:00 +20°C° 0.2 mm 2 mps 729 mmHg 81%
21:00 +20°C° 0 mm 2 mps 729 mmHg 83%
22:00 +19°C° 0 mm 2 mps 729 mmHg 85%
23:00 +18°C° 0 mm 2 mps 729 mmHg 87%

Tomorrow, 11 August, Tuesday

Time Temperature Precipitation Wind Pressure Humidity
00:00 +19°C° 0 mm 1 mps 729 mmHg 87%
01:00 +19°C° 0 mm 1 mps 729 mmHg 88%
02:00 +18°C° 0 mm 1 mps 730 mmHg 88%
03:00 +18°C° 0 mm 1 mps 729 mmHg 89%
04:00 +18°C° 0 mm 1 mps 729 mmHg 89%
05:00 +18°C° 0 mm 1 mps 729 mmHg 90%
06:00 +19°C° 0 mm 1 mps 730 mmHg 86%
07:00 +20°C° 0 mm 1 mps 730 mmHg 83%
08:00 +22°C° 0 mm 1 mps 730 mmHg 79%
09:00 +23°C° 0.2 mm 1 mps 730 mmHg 75%
10:00 +24°C° 0.2 mm 2 mps 730 mmHg 70%
11:00 +25°C° 0.2 mm 2 mps 730 mmHg 66%
12:00 +26°C° 0.1 mm 2 mps 730 mmHg 63%
13:00 +26°C° 0.1 mm 2 mps 730 mmHg 60%
14:00 +27°C° 0.1 mm 2 mps 730 mmHg 57%
15:00 +27°C° 0.7 mm 2 mps 730 mmHg 61%
16:00 +26°C° 0.7 mm 3 mps 730 mmHg 65%
17:00 +26°C° 0.7 mm 3 mps 730 mmHg 69%
18:00 +24°C° 0.3 mm 3 mps 730 mmHg 74%
19:00 +21°C° 0.3 mm 3 mps 729 mmHg 80%
20:00 +20°C° 0.3 mm 3 mps 729 mmHg 86%
21:00 +19°C° 0.1 mm 3 mps 729 mmHg 88%
22:00 +19°C° 0.1 mm 3 mps 730 mmHg 90%
23:00 +18°C° 0.1 mm 3 mps 730 mmHg 92%

Day after tomorrow, 12 August, Wednesday

Time Temperature Precipitation Wind Pressure Humidity
00:00 +18°C° 0 mm 3 mps 730 mmHg 93%
01:00 +17°C° 0 mm 3 mps 730 mmHg 94%
02:00 +17°C° 0 mm 3 mps 730 mmHg 95%
03:00 +16°C° 0 mm 3 mps 730 mmHg 95%
04:00 +16°C° 0 mm 2 mps 730 mmHg 95%
05:00 +15°C° 0 mm 2 mps 730 mmHg 96%
06:00 +16°C° 0 mm 3 mps 730 mmHg 94%
07:00 +17°C° 0 mm 3 mps 731 mmHg 92%
08:00 +18°C° 0 mm 3 mps 731 mmHg 90%
09:00 +19°C° 0.1 mm 3 mps 731 mmHg 83%
10:00 +20°C° 0.1 mm 3 mps 731 mmHg 76%
11:00 +21°C° 0.1 mm 3 mps 732 mmHg 70%
12:00 +21°C° 0 mm 3 mps 732 mmHg 67%
13:00 +21°C° 0 mm 3 mps 732 mmHg 64%
14:00 +22°C° 0 mm 3 mps 732 mmHg 61%
15:00 +21°C° 0 mm 3 mps 732 mmHg 62%
16:00 +21°C° 0 mm 3 mps 731 mmHg 62%
17:00 +21°C° 0 mm 3 mps 731 mmHg 63%
18:00 +19°C° 0 mm 3 mps 732 mmHg 68%
19:00 +18°C° 0 mm 3 mps 732 mmHg 74%
20:00 +16°C° 0 mm 2 mps 732 mmHg 79%
21:00 +15°C° 0 mm 2 mps 732 mmHg 80%
22:00 +15°C° 0 mm 2 mps 732 mmHg 81%
23:00 +14°C° 0 mm 2 mps 732 mmHg 82%

13 August, Thursday

Time Temperature Precipitation Wind Pressure Humidity
00:00 +14°C° 0 mm 1 mps 732 mmHg 83%
01:00 +13°C° 0 mm 1 mps 732 mmHg 84%
02:00 +13°C° 0 mm 1 mps 732 mmHg 85%
03:00 +13°C° 0 mm 1 mps 732 mmHg 86%
04:00 +12°C° 0 mm 1 mps 731 mmHg 87%
05:00 +12°C° 0 mm 1 mps 731 mmHg 88%
06:00 +13°C° 0 mm 1 mps 732 mmHg 83%
07:00 +15°C° 0 mm 1 mps 732 mmHg 79%
08:00 +16°C° 0 mm 1 mps 732 mmHg 75%
09:00 +18°C° 0 mm 1 mps 732 mmHg 70%
10:00 +20°C° 0 mm 1 mps 732 mmHg 65%
11:00 +20°C° 0 mm 2 mps 732 mmHg 61%
12:00 +20°C° 0 mm 2 mps 732 mmHg 59%
13:00 +21°C° 0 mm 1 mps 732 mmHg 58%
14:00 +22°C° 0 mm 1 mps 731 mmHg 57%
15:00 +21°C° 0 mm 2 mps 731 mmHg 58%
16:00 +21°C° 0 mm 2 mps 731 mmHg 59%
17:00 +21°C° 0 mm 2 mps 731 mmHg 61%
18:00 +19°C° 0 mm 2 mps 731 mmHg 68%
19:00 +17°C° 0 mm 2 mps 731 mmHg 75%
20:00 +16°C° 0 mm 2 mps 731 mmHg 82%
21:00 +15°C° 0 mm 2 mps 731 mmHg 82%
22:00 +14°C° 0 mm 2 mps 731 mmHg 82%
23:00 +14°C° 0 mm 2 mps 731 mmHg 82%

14 August, Friday

Time Temperature Precipitation Wind Pressure Humidity
00:00 +13°C° 0 mm 2 mps 731 mmHg 83%
01:00 +13°C° 0 mm 2 mps 731 mmHg 84%
02:00 +12°C° 0 mm 2 mps 731 mmHg 85%
03:00 +12°C° 0 mm 2 mps 731 mmHg 86%
04:00 +12°C° 0 mm 2 mps 730 mmHg 88%
05:00 +12°C° 0 mm 2 mps 730 mmHg 90%
06:00 +13°C° 0 mm 2 mps 730 mmHg 85%
07:00 +14°C° 0 mm 3 mps 730 mmHg 81%
08:00 +16°C° 0 mm 3 mps 730 mmHg 76%
09:00 +17°C° 0 mm 4 mps 730 mmHg 73%
10:00 +19°C° 0 mm 4 mps 730 mmHg 69%
11:00 +20°C° 0 mm 4 mps 730 mmHg 65%
12:00 +21°C° 0 mm 4 mps 730 mmHg 64%
13:00 +21°C° 0 mm 4 mps 730 mmHg 62%
14:00 +22°C° 0 mm 5 mps 729 mmHg 60%
15:00 +22°C° 0 mm 4 mps 729 mmHg 61%
16:00 +22°C° 0 mm 4 mps 729 mmHg 62%
17:00 +22°C° 0 mm 4 mps 729 mmHg 63%
18:00 +20°C° 0 mm 4 mps 729 mmHg 67%
19:00 +18°C° 0 mm 3 mps 729 mmHg 72%
20:00 +17°C° 0 mm 3 mps 728 mmHg 76%
21:00 +16°C° 0 mm 3 mps 728 mmHg 75%
22:00 +16°C° 0 mm 3 mps 728 mmHg 74%
23:00 +14°C° 0 mm 3 mps 728 mmHg 73%

15 August, Saturday

Time Temperature Precipitation Wind Pressure Humidity
00:00 +14°C° 0 mm 3 mps 728 mmHg 72%
01:00 +13°C° 0 mm 3 mps 728 mmHg 72%
02:00 +13°C° 0 mm 3 mps 728 mmHg 71%
03:00 +13°C° 0 mm 3 mps 727 mmHg 72%
04:00 +12°C° 0 mm 3 mps 727 mmHg 73%
05:00 +12°C° 0 mm 3 mps 727 mmHg 74%
06:00 +13°C° 0 mm 3 mps 727 mmHg 73%
07:00 +14°C° 0 mm 3 mps 727 mmHg 73%
08:00 +17°C° 0 mm 3 mps 727 mmHg 72%
09:00 +18°C° 0 mm 3 mps 727 mmHg 70%
10:00 +20°C° 0 mm 3 mps 727 mmHg 68%
11:00 +23°C° 0 mm 2 mps 727 mmHg 66%
12:00 +24°C° 0.3 mm 2 mps 727 mmHg 63%
13:00 +25°C° 0.3 mm 2 mps 727 mmHg 60%
14:00 +26°C° 0.3 mm 1 mps 727 mmHg 57%
15:00 +26°C° 0 mm 1 mps 726 mmHg 58%
16:00 +26°C° 0 mm 1 mps 726 mmHg 59%
17:00 +26°C° 0 mm 1 mps 726 mmHg 60%
18:00 +24°C° 0.9 mm 2 mps 726 mmHg 67%
19:00 +21°C° 0.9 mm 2 mps 725 mmHg 75%
20:00 +19°C° 0.9 mm 2 mps 725 mmHg 82%
21:00 +18°C° 0.3 mm 2 mps 725 mmHg 82%
22:00 +18°C° 0.3 mm 2 mps 725 mmHg 83%
23:00 +17°C° 0.3 mm 2 mps 725 mmHg 83%
Show more